Location: Barnston
(51.8500°N, 0.4000°E)
Time: 18:54:00
(UTC+00:00)

ATLAS 2AS CENTAUR R/B - Visible Passes

Search period start: 22 April 2024 00:00
Search period end: 02 May 2024 00:00
Orbit: 1007 x 1204 km, 63.7° (Epoch: 07 March)

Date Brightness Start Highest point End Pass type
(mag) Time Alt. Az. Time Alt. Az. Time Alt. Az.
22 Apr 4.5 00:45:45 16° SE 00:48:01 18° ESE 00:52:32 10° ENE visible
22 Apr 3.0 02:33:10 24° SSW 02:37:49 67° SE 02:44:53 10° NE visible
23 Apr 4.9 00:02:11 10° ESE 00:03:40 11° ESE 00:05:14 10° E visible
23 Apr 3.4 01:49:36 29° S 01:53:02 48° ESE 01:59:49 10° NE visible
23 Apr 3.1 03:37:01 12° WSW 03:43:56 61° NW 03:50:54 10° NE visible
24 Apr 3.8 01:05:58 27° SSE 01:08:21 33° ESE 01:14:36 10° NE visible
24 Apr 2.9 02:53:23 20° SW 02:58:50 78° NW 03:05:56 10° NE visible
25 Apr 4.2 00:22:19 21° SE 00:23:47 23° ESE 00:29:07 10° ENE visible
25 Apr 2.8 02:09:43 29° SSW 02:13:51 80° SE 02:20:57 10° NE visible
25 Apr 3.6 03:58:28 10° W 04:05:23 43° NNW 04:12:00 10° NE visible
25 Apr 4.6 23:38:36 14° ESE 23:39:22 15° ESE 23:43:01 10° ENE visible
26 Apr 3.0 01:26:01 36° S 01:28:58 58° SE 01:35:56 10° NE visible
26 Apr 3.3 03:13:25 12° WSW 03:20:07 53° NNW 03:26:58 10° NE visible
27 Apr 3.4 00:42:15 35° SSE 00:44:13 41° ESE 00:50:49 10° NE visible
27 Apr 3.0 02:29:40 20° WSW 02:34:57 67° NW 02:41:59 10° NE visible
27 Apr 3.8 23:58:28 27° SE 23:59:36 28° ESE 00:05:31 10° ENE visible
28 Apr 2.8 01:45:52 30° SW 01:49:54 87° NW 01:57:01 10° NE visible
28 Apr 3.8 03:34:53 10° W 03:41:39 39° NNW 03:48:08 10° NE visible
28 Apr 4.3 23:14:38 19° ESE 23:15:06 19° ESE 23:19:50 10° ENE visible
29 Apr 2.8 01:02:01 39° SSW 01:04:58 70° SE 01:12:02 10° NE visible
29 Apr 3.5 02:49:25 10° WSW 02:56:20 47° NNW 03:03:04 10° NE visible
29 Apr 4.7 22:30:44 12° ESE 22:30:44 12° ESE 22:33:02 10° E visible
30 Apr 3.1 00:18:08 40° SSE 00:20:09 50° ESE 00:26:59 10° NE visible
30 Apr 3.2 02:05:31 18° WSW 02:11:06 58° NW 02:18:03 10° NE visible
30 Apr 3.5 23:34:11 33° SE 23:35:27 35° ESE 23:41:47 10° NE visible
01 May 2.9 01:21:35 27° WSW 01:25:59 75° NW 01:33:04 10° NE visible
01 May 4.0 03:11:20 10° W 03:17:56 36° NNW 03:24:18 10° NE visible
01 May 3.9 22:50:11 24° ESE 22:50:52 24° ESE 22:56:22 10° ENE visible
